Flag for Canada Weather past 2 weeks in High Level, Alberta, Canada

23 °F

Scattered clouds.

Feels Like: 23 °F
Forecast: 4 / 15 °F
Wind: 2 mph from Southeast

Location: High Level

Current Time: Nov 27, 2015 at 5:43:01 PM

Latest Report: Nov 27, 2015 at 5:00 PM

Visibility: 15 mi

Pressure: 30.12 "Hg

Humidity: 86%

Dew point: 19 °F

Location of High LevelLocation

Historic Weather in High Level — Graph


High Level temperature yesterday

Maximum temperature yesterday: 10 °F (at 2:00 PM)
Minimum temperature yesterday: -9 °F (at 12:00 AM)
Average temperature yesterday: 1 °F

Past Weeks' High & Low Weather Summary

High45 °F (Nov 21, 9:00 PM)100% (Nov 12, 11:00 PM)30.47 "Hg (Nov 12, 11:00 PM)
Low-22 °F (Nov 20, 5:00 AM)33% (Nov 27, 5:00 AM)29.13 "Hg (Nov 13, 2:00 AM)
Average11 °F87%29.88 "Hg
* Reported Nov 12 4:00 PM — Nov 27 4:00 PM, High Level, Weather by CustomWeather, © 2015

Note: Actual official high and low records may vary slightly from our data, if they occured in-between our weather recording intervals... More about our weather records


High Level weather history for previous 24 hours

Time TempWeatherWind HumidityBarometerVisibility
4:00 PM
Fri, Nov 27
27 °FScattered clouds.2 mph74%30.14 "Hg15 mi
3:00 PM28 °FScattered clouds.No wind64%30.14 "Hg15 mi
2:00 PM32 °FScattered clouds.No wind60%30.14 "Hg15 mi
1:00 PM28 °FPassing clouds.No wind64%30.13 "Hg15 mi
12:00 PM27 °FPassing clouds.No wind69%30.12 "Hg15 mi
11:00 AM23 °FPassing clouds.2 mph74%30.11 "Hg15 mi
10:00 AM23 °FPassing clouds.No wind74%30.08 "Hg15 mi
9:00 AM25 °FPassing clouds.2 mph69%30.06 "Hg15 mi
8:00 AM32 °FPassing clouds.5 mph55%30.02 "Hg15 mi
7:00 AM43 °FClear.6 mph34%30.00 "Hg15 mi
6:00 AM41 °FClear.6 mph36%29.98 "Hg9 mi
5:00 AM41 °FClear.6 mph33%29.97 "Hg9 mi
4:00 AM18 °FClear.3 mph79%29.98 "Hg9 mi
3:00 AM10 °FClear.2 mph92%29.98 "Hg9 mi
2:00 AM10 °FClear.2 mph85%29.98 "Hg9 mi
1:00 AM9 °FPassing clouds.No wind92%29.99 "Hg9 mi
12:00 AM7 °FClear.2 mph92%29.99 "Hg9 mi
11:00 PM
Thu, Nov 26
7 °FClear.No wind92%29.99 "Hg9 mi
10:00 PM7 °FPassing clouds.No wind92%30.00 "Hg15 mi
9:00 PM9 °FPassing clouds.2 mph85%30.01 "Hg15 mi
8:00 PM9 °FPassing clouds.No wind85%30.01 "Hg15 mi
7:00 PM7 °FPassing clouds.No wind92%30.03 "Hg15 mi
6:00 PM9 °FPassing clouds.No wind92%30.05 "Hg15 mi
5:00 PM9 °FPartly sunny.No wind92%30.06 "Hg15 mi
Weather by CustomWeather, © 2015

See weather overviewHow to use our weather pages